Galliano, LA

8:59 AM CDT on August 29, 2016 (GMT -0500)
Galliano

Weather History for KGAO - June, 2013

Change the Weather History Date:

Thursday, June 13, 2013

  Actual Average (KAXO) Record (KAXO)
Temperature  
Mean Temperature 82 °F -  
Max Temperature 92 °F 80 °F 91 °F (2007)
Min Temperature 71 °F 78 °F 73 °F (2014)
Cooling Degree Days 16    
Growing Degree Days 32 (Base 50)    
Moisture  
Dew Point 75 °F    
Average Humidity 77    
Maximum Humidity 99    
Minimum Humidity 53    
Precipitation  
Precipitation 0.00 in - - ()
Sea Level Pressure  
Sea Level Pressure 30.00 in    
Wind  
Wind Speed 3 mph (WSW)    
Max Wind Speed 13 mph    
Max Gust Speed 16 mph    
Visibility 10 miles    
Events      
Averages and records for this station are not official NWS values.
T = Trace of Precipitation, MM = Missing Value Source: NWS Daily Summary

Daily Weather History Graph

Daily Weather History Graph

Search for Another Location

Airport or City:

Trip Planner

Search our weather history database for the weather conditions in past years. The results will help you decide how hot, cold, wet, or windy it might be!

Date:

Astronomy

Jun. 13, 2013 Rise Set
Actual Time 6:00 AM CDT 8:01 PM CDT
Civil Twilight 5:33 AM CDT 8:28 PM CDT
Nautical Twilight 5:00 AM CDT 9:01 PM CDT
Astronomical Twilight 4:25 AM CDT 9:37 PM CDT
Moon 10:20 AM CDT (6/13) 11:27 PM CDT (6/13)
Length of Visible Light 14h 55m
Length of Day
14h 01m
Waxing Crescent, 22% of the Moon is Illuminated
Jun 13
Waxing Crescent
Jun 16
First Quarter
Jun 23
Full
Jun 29
Last Quarter
Jul 8
New

Hourly Weather History & Observations

Time (CDT) Temp. Heat Index Dew Point Humidity Pressure Visibility Wind Dir Wind Speed Gust Speed Precip Events Conditions
12:15 AM 75.7 °F - 73.4 °F 92% 30.04 in 10.0 mi Calm Calm - N/A   Clear
12:35 AM 75.6 °F - 73.4 °F 93% 30.04 in 10.0 mi Calm Calm - N/A   Clear
12:55 AM 74.8 °F - 72.7 °F 93% 30.03 in 10.0 mi Calm Calm - N/A   Clear
1:15 AM 74.3 °F - 72.5 °F 94% 30.02 in 10.0 mi Calm Calm - N/A   Clear
1:35 AM 73.8 °F - 72.3 °F 95% 30.02 in 10.0 mi Calm Calm - N/A   Clear
1:55 AM 73.4 °F - 71.8 °F 95% 30.02 in 10.0 mi Calm Calm - N/A   Clear
2:15 AM 73.9 °F - 71.8 °F 93% 30.02 in 10.0 mi Calm Calm - N/A   Scattered Clouds
2:35 AM 73.9 °F - 72.0 °F 93% 30.02 in 10.0 mi Calm Calm - N/A   Scattered Clouds
2:55 AM 73.8 °F - 72.0 °F 94% 30.02 in 10.0 mi Calm Calm - N/A   Clear
3:15 AM 73.9 °F - 72.5 °F 95% 30.02 in 10.0 mi Calm Calm - N/A   Clear
3:35 AM 72.9 °F - 71.2 °F 95% 30.02 in 10.0 mi Calm Calm - N/A   Clear
3:55 AM 73.6 °F - 72.5 °F 96% 30.02 in 10.0 mi Calm Calm - N/A   Clear
4:15 AM 72.3 °F - 71.2 °F 96% 30.02 in 10.0 mi Calm Calm - N/A   Clear
4:35 AM 72.7 °F - 71.6 °F 96% 30.02 in 10.0 mi Calm Calm - N/A   Clear
4:55 AM 72.1 °F - 70.9 °F 96% 30.02 in 10.0 mi Calm Calm - N/A   Clear
5:15 AM 71.6 °F - 70.3 °F 96% 30.03 in 10.0 mi Calm Calm - N/A   Clear
5:35 AM 72.1 °F - 71.2 °F 97% 30.03 in 10.0 mi Calm Calm - N/A   Clear
5:55 AM 72.1 °F - 71.2 °F 97% 30.04 in 10.0 mi Calm Calm - N/A   Clear
6:15 AM 72.7 °F - 72.3 °F 99% 30.04 in 5.0 mi NNW 3.5 mph - N/A   Clear
6:35 AM 73.0 °F - 72.7 °F 99% 30.06 in 5.0 mi Calm Calm - N/A   Scattered Clouds
6:55 AM 74.3 °F - 74.1 °F 99% 30.05 in 7.0 mi Calm Calm - N/A   Scattered Clouds
7:15 AM 75.9 °F - 75.2 °F 98% 30.06 in 10.0 mi WNW 3.5 mph - N/A   Scattered Clouds
7:35 AM 78.3 °F - 76.3 °F 94% 30.06 in 10.0 mi West 3.5 mph - N/A   Clear
7:55 AM 81.5 °F 89.2 °F 77.4 °F 87% 30.06 in 10.0 mi West 3.5 mph - N/A   Clear
8:15 AM 83.3 °F 92.8 °F 77.2 °F 82% 30.07 in 10.0 mi West 3.5 mph - N/A   Clear
8:35 AM 83.8 °F 93.5 °F 77.0 °F 80% 30.08 in 10.0 mi West 6.9 mph - N/A   Clear
8:55 AM 85.3 °F 95.0 °F 76.3 °F 74% 30.07 in 10.0 mi West 5.8 mph - N/A   Clear
9:15 AM 86.2 °F 96.4 °F 76.1 °F 72% 30.07 in 10.0 mi West 5.8 mph - N/A   Scattered Clouds
9:35 AM 86.5 °F 96.4 °F 75.7 °F 70% 30.07 in 10.0 mi WNW 5.8 mph - N/A   Scattered Clouds
9:55 AM 87.3 °F 98.2 °F 76.5 °F 70% 30.07 in 10.0 mi West 6.9 mph - N/A   Scattered Clouds
10:15 AM 85.3 °F 93.4 °F 74.5 °F 70% 30.07 in 10.0 mi WNW 3.5 mph - N/A   Mostly Cloudy
10:35 AM 86.9 °F 95.9 °F 74.8 °F 67% 30.07 in 10.0 mi WSW 5.8 mph - N/A   Mostly Cloudy
10:55 AM 88.2 °F 97.4 °F 74.5 °F 64% 30.07 in 10.0 mi WSW 4.6 mph - N/A   Scattered Clouds
11:15 AM 88.9 °F 98.1 °F 74.3 °F 62% 30.07 in 10.0 mi WSW 6.9 mph - N/A   Scattered Clouds
11:35 AM 89.1 °F 98.5 °F 74.5 °F 62% 30.06 in 10.0 mi WSW 8.1 mph - N/A   Scattered Clouds
11:55 AM 90.5 °F 100.3 °F 74.3 °F 59% 30.05 in 10.0 mi West 6.9 mph - N/A   Scattered Clouds
12:15 PM 90.1 °F 99.4 °F 73.9 °F 59% 30.04 in 10.0 mi Calm Calm - N/A   Scattered Clouds
12:35 PM 91.0 °F 99.8 °F 73.4 °F 56% 30.04 in 10.0 mi WSW 5.8 mph - N/A   Scattered Clouds
12:55 PM 91.6 °F 99.9 °F 73.0 °F 54% 30.04 in 10.0 mi SSW 4.6 mph - N/A   Clear
1:15 PM 91.4 °F 100.7 °F 73.8 °F 56% 30.03 in 10.0 mi SW 4.6 mph - N/A   Scattered Clouds
1:35 PM 90.7 °F 99.0 °F 72.9 °F 56% 30.03 in 10.0 mi SW 6.9 mph - N/A   Mostly Cloudy
1:55 PM 92.3 °F 101.5 °F 73.4 °F 54% 30.02 in 10.0 mi Calm Calm - N/A   Scattered Clouds
2:15 PM 92.1 °F 100.5 °F 72.5 °F 53% 30.01 in 10.0 mi SW 5.8 mph - N/A   Clear
2:35 PM 92.5 °F 102.6 °F 73.9 °F 55% 30.00 in 10.0 mi SSW 6.9 mph - N/A   Scattered Clouds
2:55 PM 91.2 °F 102.7 °F 75.4 °F 60% 30.00 in 10.0 mi South 10.4 mph - N/A   Mostly Cloudy
3:15 PM 91.8 °F 104.1 °F 76.3 °F 60% 29.99 in 10.0 mi South 9.2 mph - N/A   Scattered Clouds
3:35 PM 91.9 °F 105.2 °F 76.8 °F 61% 29.98 in 10.0 mi South 11.5 mph 16.1 mph N/A   Scattered Clouds
3:55 PM 91.8 °F 105.4 °F 77.0 °F 62% 29.97 in 10.0 mi SSW 11.5 mph - N/A   Clear
4:15 PM 91.4 °F 105.1 °F 77.4 °F 63% 29.96 in 10.0 mi South 12.7 mph 16.1 mph N/A   Clear
4:35 PM 91.2 °F 104.6 °F 77.2 °F 63% 29.95 in 10.0 mi South 11.5 mph - N/A   Clear
4:55 PM 90.9 °F 104.3 °F 77.0 °F 64% 29.94 in 10.0 mi South 10.4 mph - N/A   Clear
5:15 PM 92.1 °F 104.3 °F 76.1 °F 59% 29.94 in 10.0 mi WSW 4.6 mph - N/A   Scattered Clouds
5:35 PM 91.8 °F 104.1 °F 76.1 °F 60% 29.93 in 10.0 mi SW 5.8 mph - N/A   Scattered Clouds
5:55 PM 91.4 °F 104.5 °F 76.6 °F 62% 29.92 in 10.0 mi WSW 6.9 mph - N/A   Clear
6:15 PM 91.4 °F 104.5 °F 76.8 °F 62% 29.92 in 10.0 mi SW 4.6 mph - N/A   Clear
6:35 PM 90.0 °F 102.5 °F 76.6 °F 65% 29.91 in 10.0 mi SW 5.8 mph - N/A   Scattered Clouds
6:55 PM 88.5 °F 100.5 °F 76.6 °F 68% 29.91 in 10.0 mi Calm Calm - N/A   Scattered Clouds
7:15 PM 89.1 °F 101.4 °F 76.8 °F 67% 29.91 in 10.0 mi West 4.6 mph - N/A   Scattered Clouds
7:35 PM 88.2 °F 99.5 °F 76.3 °F 68% 29.91 in 10.0 mi WSW 4.6 mph - N/A   Scattered Clouds
7:55 PM 86.0 °F 96.9 °F 77.0 °F 74% 29.91 in 10.0 mi WSW 3.5 mph - N/A   Clear
8:15 PM 85.1 °F 95.8 °F 77.0 °F 77% 29.91 in 10.0 mi WSW 3.5 mph - N/A   Clear
8:35 PM 84.2 °F 94.5 °F 77.4 °F 80% 29.92 in 10.0 mi WSW 4.6 mph - N/A   Clear
8:55 PM 84.2 °F 94.9 °F 77.9 °F 81% 29.92 in 10.0 mi WSW 5.8 mph - N/A   Clear
9:15 PM 84.0 °F 94.8 °F 77.9 °F 82% 29.92 in 10.0 mi WSW 4.6 mph - N/A   Clear
9:35 PM 83.3 °F 93.5 °F 77.9 °F 84% 29.92 in 10.0 mi WSW 4.6 mph - N/A   Clear
9:55 PM 82.9 °F 92.4 °F 77.7 °F 84% 29.94 in 10.0 mi WSW 3.5 mph - N/A   Clear
10:15 PM 82.8 °F 91.9 °F 77.5 °F 84% 29.94 in 10.0 mi WSW 5.8 mph - N/A   Clear
10:35 PM 82.4 °F 91.2 °F 77.4 °F 85% 29.94 in 10.0 mi WSW 3.5 mph - N/A   Clear
10:55 PM 82.9 °F 92.4 °F 77.5 °F 84% 29.94 in 10.0 mi WSW 5.8 mph - N/A   Clear
11:15 PM 83.3 °F 93.5 °F 77.9 °F 84% 29.94 in 10.0 mi Calm Calm - N/A   Clear
11:35 PM 83.3 °F 93.8 °F 78.3 °F 85% 29.94 in 10.0 mi WSW 5.8 mph - N/A   Clear
11:55 PM 83.1 °F 94.0 °F 78.8 °F 87% 29.94 in 10.0 mi WSW 4.6 mph - N/A   Scattered Clouds